STARLINK-2445 (48109 NORAD) Tracking and Keplerian Element Data

This shows tracking and keplerian element data for the satellite.

Feedback or suggestion? Click here.




ElementValue
Catalog48109
NameSTARLINK-2445
Epoch Orbit195
Epoch Day173.91668981
Epoch Year2021
RAAN336.4552
Inclination53.0521
Eccentricity0.0001417
Argument of Perigee92.8201
Mean Anonmoly69.0837
Mean Motion15.06340477
Decay Rate0.00087962
L11 48109U 21027T 21173.91668981 .00087962 00000-0 58604-2 0 9993
L22 48109 53.0521 336.4552 0001417 92.8201 69.0837 15.06340477 1958

Live tracking and technical data element details for STARLINK-2445 (NORAD 48109). STARLINK-2445 can be tracked NOW for your location showing map with azimuth and elevation plus other details from your city location.

Track the satellite on the map from your city or location and see movement details for azimuth, elevation, latitude, longitude, range, height, and movement on the map or in text.







IsCatalogInMostPopularTable: catalog: 48109, numindb: 34
Update: records affected: 1



GetName: 48109 STARLINK-2445

Hit Count: updated at: Thu, 24 Jun 2021 04:19:29 GMT